Terug naar catalogus

SL-14 DEB

ActiefPO
NORAD 19174·DEBRIS·🇷🇺 Russia

Gelanceerd Oct 26, 1978 vanaf Plesetsk Cosmodrome

Loading…

Volgende Passages (komende 24 uur)

TLE

VersSource: Space-Track

Epoch: Sep 14, 2026, 15:54 UTC

1 19174U 78100R   26257.66250083  .00000121  00000-0  10341-2 0  9995
2 19174  81.9091 328.7636 0144522 320.3060 193.9596 12.22328601709644

Volg SL-14 DEB in realtime met AllMySat

Download on the App Store